YBBN

Brisbane Airport

Airport
ICAO code
YBBN
IATA Code
BNE
Summary
ICAO Region
APAC
ICAO Territory
Location

Brisbane, Queensland

Serving
Brisbane
Elevation
13 ft
Coordinates
27° 23' 30" S , 153° 7' 21" E
KCC
Metar
Observation
YBBN 242000Z 24005KT CAVOK 14/10 Q1014
Station
Brisbane Airport M. O
Date/Time
2022-09-24 20:00:00
Wind direction
240°
Wind speed
05 kts
Lowest cloud amount
clouds and visibility OK
Temperature
14°C
Dew point
10°C
Humidity
76%
QNH
1014 hPa
Weather condition
n/a

Description

Serves the city of Brisbane and the surrounding metropolitan area.

Climatology

Humid “subtropical” climate (Köppen climate classification Cfa) - characterized by hot, humid summers and cool winters. Significant amounts of precipitation occur in all seasons in most areas. Most summer rainfall occurs during thunderstorms and occasional tropical storms.

SKYbrary Partners:

Safety knowledge contributed by: